Weather History for Winslow, AZ

Change the Weather History Date:

Friday, September 20, 2013

  Actual Average Record
Temperature  
Mean Temperature 73 °F 67 °F  
Max Temperature 89 °F 84 °F 93 °F (1928)
Min Temperature 56 °F 51 °F 31 °F (1978)
Degree Days  
Heating Degree Days 0 1  
Month to date heating degree days 0 7  
Since 1 July heating degree days 0 7  
Cooling Degree Days 8 3  
Month to date cooling degree days 143 122  
Year to date cooling degree days 1368 1180  
Growing Degree Days 22 (Base 50)    
Moisture  
Dew Point 42 °F    
Average Humidity 40    
Maximum Humidity 62    
Minimum Humidity 17    
Precipitation  
Precipitation 0.00 in 0.03 in 1.93 in (1933)
Month to date precipitation 0.93 0.63  
Year to date precipitation 6.63 5.16  
Sea Level Pressure  
Sea Level Pressure 29.85 in    
Wind  
Wind Speed 5 mph (SSW)    
Max Wind Speed 17 mph    
Max Gust Speed 22 mph    
Visibility 10 miles    
Events      
T = Trace of Precipitation, MM = Missing Value Source: NWS Daily Summary

Daily Weather History Graph

Daily Weather History Graph

Search for Another Location

Airport:

Trip Planner

Search our weather history database for the weather conditions in past years. The results will help you decide how hot, cold, wet, or windy it might be!

Date:

Astronomy

Sep. 20, 2013 Rise Set
Actual Time 6:09 AM MST 6:22 PM MST
Civil Twilight 5:44 AM MST 6:47 PM MST
Nautical Twilight 5:14 AM MST 7:16 PM MST
Astronomical Twilight 4:44 AM MST 7:46 PM MST
Moon 7:03 PM MST (9/20) 7:23 AM MST (9/20)
Length of Visible Light 13h 03m
Length of Day
12h 12m
Full, 98% of the Moon is Illuminated
Sep 20
Full
Sep 26
Last Quarter
Oct 4
New
Oct 11
First Quarter
Oct 18
Full

Hourly Weather History & Observations

Time (MST) Temp. Dew Point Humidity Pressure Visibility Wind Dir Wind Speed Gust Speed Precip Events Conditions
12:56 AM 61.0 °F 45.0 °F 56% 29.85 in 10.0 mi SE 3.5 mph - N/A   Clear
1:56 AM 57.9 °F 44.1 °F 60% 29.85 in 10.0 mi SW 5.8 mph - N/A   Clear
2:56 AM 57.0 °F 44.1 °F 62% 29.85 in 10.0 mi Calm Calm - N/A   Partly Cloudy
3:56 AM 57.9 °F 44.1 °F 60% 29.85 in 10.0 mi Calm Calm - N/A   Mostly Cloudy
4:56 AM 59.0 °F 42.1 °F 53% 29.86 in 10.0 mi West 3.5 mph - N/A   Mostly Cloudy
5:56 AM 57.9 °F 42.1 °F 56% 29.88 in 10.0 mi Calm Calm - N/A   Scattered Clouds
6:56 AM 57.0 °F 44.1 °F 62% 29.92 in 10.0 mi Calm Calm - N/A   Partly Cloudy
7:56 AM 63.0 °F 43.0 °F 48% 29.93 in 10.0 mi Calm Calm - N/A   Clear
8:56 AM 69.1 °F 41.0 °F 36% 29.93 in 10.0 mi Calm Calm - N/A   Clear
9:56 AM 73.0 °F 41.0 °F 31% 29.92 in 10.0 mi Calm Calm - N/A   Clear
10:56 AM 78.1 °F 39.9 °F 25% 29.88 in 10.0 mi Calm Calm - N/A   Clear
11:56 AM 82.9 °F 41.0 °F 23% 29.86 in 10.0 mi ESE 4.6 mph - N/A   Clear
12:56 PM 86.0 °F 37.9 °F 18% 29.83 in 10.0 mi Variable 4.6 mph - N/A   Clear
1:56 PM 88.0 °F 39.0 °F 18% 29.81 in 10.0 mi SSE 11.5 mph 16.1 mph N/A   Clear
2:56 PM 87.1 °F 39.0 °F 18% 29.81 in 10.0 mi West 6.9 mph - N/A   Overcast
3:56 PM 88.0 °F 37.9 °F 17% 29.79 in 10.0 mi SW 13.8 mph 19.6 mph N/A   Scattered Clouds
4:56 PM 86.0 °F 37.9 °F 18% 29.78 in 10.0 mi SW 12.7 mph 18.4 mph N/A   Clear
5:56 PM 82.0 °F 39.0 °F 22% 29.81 in 10.0 mi WSW 9.2 mph - N/A   Clear
6:56 PM 75.0 °F 42.1 °F 31% 29.84 in 10.0 mi WSW 8.1 mph - N/A   Clear
7:56 PM 70.0 °F 44.1 °F 39% 29.86 in 10.0 mi WSW 6.9 mph - N/A   Clear
8:56 PM 69.1 °F 45.0 °F 42% 29.86 in 10.0 mi SW 8.1 mph - N/A   Clear
9:56 PM 68.0 °F 44.1 °F 42% 29.85 in 10.0 mi SW 6.9 mph - N/A   Clear
10:56 PM 66.9 °F 44.1 °F 44% 29.85 in 10.0 mi ESE 3.5 mph - N/A   Clear
11:56 PM 66.0 °F 45.0 °F 47% 29.84 in 10.0 mi South 6.9 mph - N/A   Scattered Clouds